Presure
149 170 141 171 149 156 143 170 168 136 153 131 130 137 147 131 132 132 153 146 125 143 122 164 135 131 135 139 145 140 112 133 136 133 119 126 122 130 128 131 141 158 122 181 138
140 137 161 189 137 143 141 143 152 152 147 149 136 115 90 155 107 136 118 157 101 132 159 146 172 140 147 141 152 150 143 151 134 137 168 135 144 136 118 125 128 117 147 143 182
171 156 131 126 172 172 136 118 143 168 147 161 126 151 92 98 130 108 128 137 149 141 166 130 149 165 143 149 137 130 141 152 149 156 141 134 126 125 122 126 163 119 109 161 171
128 202 155 137 172 140 139 140 116 114 154 126 150 139 152 152 97 147 128 129 165 144 135 160 147 168 148 150 167 157 140 120 153 125 157 132 142 134 120 118 116 109 109 173 181
182 176 123 132 140 174 186 165 136 132 112 145 91 129 122 100 97 96 120 132 146 152 136 159 132 147 149 158 152 154 149 135 136 152 127 131 122 108 117 117 115 113 107 108 148
185 148 184 197 132 102 160 189 149 132 141 141 89 131 125 88 123 90 101 93 114 149 143 139 166 148 135 150 149 155 161 147 127 139 140 131 143 121 126 127 129 104 113 107 129
187 157 134 181 144 85 120 99 186 114 128 101 157 147 134 159 94 94 168 129 150 143 162 144 153 143 156 145 155 150 152 151 143 128 118 118 148 112 120 115 114 108 104 102 99
197 181 172 188 182 149 174 109 90 150 105 91 131 112 134 146 97 150 168 102 148 142 145 158 140 142 149 141 155 145 163 141 156 147 146 137 146 111 114 122 145 112 99 100 111
214 175 184 176 186 176 199 185 126 84 90 161 143 94 168 144 126 156 158 141 159 151 140 138 138 167 147 143 148 158 141 155 143 163 170 124 119 118 111 122 160 96 140 102 163
211 216 178 182 173 180 179 140 184 165 173 143 158 157 150 110 141 170 161 121 158 160 157 135 142 135 151 148 151 153 156 150 155 132 145 152 114 118 121 117 119 105 105 98 155
221 214 173 162 169 187 183 174 195 134 148 196 194 164 140 158 132 114 148 166 127 163 167 147 142 153 160 140 137 149 165 151 155 150 153 137 139 119 144 143 134 121 171 98 161
202 221 207 166 198 167 165 135 162 174 144 185 160 196 125 163 175 153 122 124 174 125 124 149 134 155 141 135 135 146 143 164 139 150 141 154 133 153 137 132 125 114 140 165 97
158 180 199 209 178 160 164 156 161 159 172 167 173 176 183 128 163 146 150 157 156 161 129 169 138 140 148 155 163 156 141 143 154 157 149 139 150 144 162 132 122 145 144 137 157
167 161 152 165 173 164 156 169 173 178 134 166 157 115 147 175 131 151 179 151 136 137 180 142 153 156 137 147 142 159 175 132 139 142 134 142 142 146 150 140 141 154 153 123 117
260 154 161 161 154 154 129 159 158 185 153 178 151 169 162 170 142 195 187 141 133 145 134 191 136 163 161 131 165 125 162 129 149 163 138 146 150 134 140 139 141 158 136 147 151
254 255 264 172 165 161 166 218 161 153 184 158 188 169 178 177 177 173 162 153 143 154 160 135 147 147 132 145 175 139 133 140 135 131 124 141 120 153 140 145 135 147 137 146 144
253 251 252 270 268 229 182 155 131 215 185 171 193 172 140 152 167 168 156 177 152 180 156 145 146 159 147 163 167 148 145 174 143 163 150 145 149 156 134 150 148 160 150 146 143
250 248 248 255 261 262 298 215 193 190 189 195 170 155 191 128 128 131 184 172 137 179 149 164 153 148 142 148 142 159 146 141 181 143 153 176 144 139 150 143 144 142 147 149 168
249 253 248 245 255 249 241 304 205 160 138 135 180 177 182 197 178 149 186 192 185 187 194 162 179 178 160 155 141 174 160 141 179 152 176 150 153 140 141 156 144 135 149 156 146
229 241 242 248 238 253 267 290 215 272 208 199 188 186 161 186 193 201 167 174 141 164 149 163 153 142 131 144 153 160 156 152 142 148 137 143 151 140 151 150 147 144 147 137 158
228 241 238 243 244 234 238 277 282 292 292 279 198 205 193 188 152 179 182 183 179 184 155 172 139 175 145 158 173 161 180 147 133 139 158 150 158 150 142 169 149 148 140 140 145
245 234 245 239 238 230 251 265 271 279 281 276 265 259 192 119 193 191 178 176 142 123 173 162 141 165 158 160 181 171 173 168 167 179 155 149 155 140 145 136 138 135 157 146 143
194 241 236 240 237 225 225 220 276 264 275 271 256 255 249 239 196 189 161 193 132 192 191 193 188 175 178 179 175 182 138 174 161 181 157 166 147 149 160 152 158 134 146 160 144
233 247 233 240 233 226 215 227 266 266 264 268 251 248 240 236 237 235 227 196 181 192 148 153 186 189 179 188 178 141 171 177 170 177 188 174 142 140 132 129 131 160 144 160 153
219 245 230 224 229 228 217 216 266 260 257 264 262 240 246 235 229 223 222 194 217 214 205 154 123 128 131 185 206 146 173 150 124 181 176 155 165 163 144 162 156 159 150 149 135
210 231 233 226 229 236 222 217 254 250 242 252 260 244 237 236 226 221 215 214 204 203 203 204 205 198 209 160 212 113 183 203 192 137 188 193 165 178 185 175 177 178 164 166 194
214 222 240 214 229 229 212 252 225 251 244 236 250 258 236 228 231 218 210 208 204 201 202 203 209 201 201 153 194 153 159 200 168 155 182 183 178 167 179 176 172 202 196 190 204
Wind_Speed
59 66 58 66 57 57 50 60 58 46 47 39 38 33 39 29 33 32 35 38 22 30 15 25 28 21 26 20 25 21 16 21 23 19 9 14 13 21 18 21 21 23 19 21 18
60 60 64 70 54 54 52 51 53 50 49 49 42 29 15 44 21 32 26 35 14 30 27 33 30 31 29 31 23 23 23 21 22 19 25 21 23 24 15 20 22 21 21 23 21
78 69 52 49 66 67 52 40 51 59 50 54 38 49 18 19 32 21 31 29 40 39 29 24 33 28 35 31 28 21 25 23 24 22 26 20 20 17 17 23 25 21 22 24 24
57 79 69 61 70 58 55 54 40 38 54 42 52 47 48 48 21 46 31 30 38 41 35 34 37 32 33 32 32 29 28 19 25 21 23 22 25 25 18 18 21 18 22 21 23
83 79 52 59 62 72 72 68 54 50 39 54 26 43 37 27 25 23 30 38 40 42 41 37 32 39 35 32 37 33 30 25 27 27 25 25 17 19 18 20 19 21 23 25 29
86 72 80 80 58 41 70 74 65 51 56 56 29 44 39 24 41 24 26 24 30 40 38 37 40 39 37 37 37 35 33 33 25 26 32 30 26 19 24 23 24 22 26 27 32
86 74 63 79 67 36 52 41 72 46 50 39 61 56 49 56 28 30 56 44 46 46 44 45 43 42 41 41 38 39 36 35 36 30 23 22 39 20 22 22 20 22 24 30 30
88 84 81 83 80 71 75 47 40 62 44 37 51 45 51 51 32 54 59 34 44 50 49 46 44 45 47 42 43 41 36 37 35 38 34 38 36 23 22 29 39 25 30 32 35
91 84 85 83 84 77 93 80 57 35 41 70 60 42 68 56 48 57 58 46 54 54 45 39 40 51 49 45 46 42 39 39 38 35 38 33 31 24 26 32 41 31 35 32 42
94 91 85 85 81 84 79 66 80 75 74 63 69 69 65 44 52 67 59 41 57 54 50 40 47 37 46 49 48 49 47 42 39 36 40 40 31 32 34 29 32 33 35 38 49
97 93 86 77 78 88 84 73 86 62 66 81 80 73 60 68 52 47 56 62 42 57 59 56 51 53 51 42 37 49 47 46 44 43 45 41 43 35 41 49 48 38 51 41 52
96 96 95 83 91 77 73 67 67 76 67 78 71 81 53 71 75 62 46 48 68 42 38 58 43 55 48 39 36 49 44 49 39 46 45 47 44 48 50 49 40 38 49 55 43
78 88 93 97 89 73 73 66 69 67 75 70 76 76 77 53 73 63 64 66 62 61 44 63 47 51 55 58 53 58 44 43 48 51 49 45 51 50 50 48 44 54 51 49 56
87 82 77 80 86 81 71 80 85 82 55 72 68 49 63 74 53 71 79 63 56 56 72 57 60 63 50 57 53 60 61 40 45 47 46 49 53 52 54 53 53 56 54 50 48
74 78 82 82 77 75 71 75 68 87 67 78 66 77 66 71 62 89 81 59 57 59 54 73 55 67 66 45 60 41 57 41 54 56 49 53 56 55 51 51 55 60 57 57 61
83 83 78 88 85 79 82 98 77 76 90 73 88 80 85 82 79 76 73 72 63 69 73 60 62 64 52 60 68 54 48 49 48 48 49 55 48 61 57 55 57 57 59 59 58
81 82 80 72 75 95 91 80 65 95 83 79 92 82 67 69 79 78 74 82 67 78 75 64 70 68 69 72 71 62 62 68 57 60 59 62 63 63 56 58 59 60 64 62 60
82 81 82 74 70 72 58 100 96 95 93 93 83 78 91 59 62 61 90 79 66 84 74 73 79 74 67 71 61 74 66 56 69 57 64 65 62 57 63 61 62 61 65 67 73
80 78 78 78 69 75 61 50 99 80 75 70 93 91 89 94 86 66 91 94 92 87 88 73 76 74 79 80 64 75 79 55 70 65 67 70 70 61 60 68 60 59 71 76 67
83 78 79 74 76 68 63 56 62 72 103 100 100 99 71 94 96 98 79 87 62 80 64 80 75 68 56 72 82 78 68 74 60 67 58 66 73 63 69 67 62 63 70 65 76
81 80 80 75 71 74 67 55 59 59 66 74 102 106 105 101 74 90 87 92 87 89 75 78 66 81 71 82 83 84 78 69 54 61 78 67 79 70 63 65 71 68 63 66 71
80 81 79 77 70 68 59 57 60 60 67 77 79 84 102 59 106 102 93 91 75 53 79 75 76 82 85 79 84 81 79 72 81 77 81 71 82 60 67 60 64 61 81 73 68
81 79 80 77 67 69 73 77 63 62 65 78 81 86 89 94 107 105 79 107 72 106 100 97 94 89 91 87 84 84 60 83 78 81 86 74 71 67 83 76 84 59 74 86 68
85 81 79 73 69 70 79 70 55 60 62 73 83 86 92 94 89 87 93 110 97 106 83 82 92 94 90 93 88 67 81 87 83 87 85 86 65 69 56 60 61 70 70 86 81
89 78 77 72 68 68 72 69 54 61 64 67 79 87 93 94 92 95 94 94 96 100 108 88 62 62 68 91 93 68 82 73 61 85 83 74 85 88 73 86 85 88 74 72 67
88 79 76 74 74 67 69 67 55 61 64 68 71 93 92 99 96 97 98 99 105 105 104 102 101 92 90 85 89 63 89 94 90 67 87 86 93 81 84 85 85 85 77 81 93
87 82 76 75 71 63 62 59 69 64 65 68 70 78 96 96 101 98 100 102 104 105 105 101 95 101 99 72 94 73 89 96 90 88 87 86 87 89 84 89 88 99 92 86 99
Wind_Direction
233 232 236 232 236 234 232 234 234 234 231 232 237 233 233 241 222 244 228 244 274 237 285 267 254 263 256 275 249 266 262 272 275 279 285 299 317 313 324 321 307 327 297 338 302
232 234 233 229 235 232 233 234 234 233 233 235 240 237 243 234 241 239 256 247 271 261 246 242 274 249 247 253 261 270 261 271 273 284 308 279 276 284 322 322 317 330 329 334 337
233 232 230 232 233 233 236 235 236 230 234 236 239 235 247 249 241 251 257 254 238 245 256 259 241 271 250 255 259 270 258 269 271 294 274 286 297 295 307 307 336 322 321 328 322
237 228 232 231 234 235 235 239 230 234 232 242 237 240 237 239 255 238 254 253 252 242 261 246 247 272 248 255 293 273 263 280 274 287 302 285 276 282 304 307 312 320 320 318 328
231 231 234 236 237 235 229 233 238 237 236 234 241 244 241 246 251 258 253 251 244 241 254 242 266 252 253 263 266 267 274 273 262 275 283 280 287 294 298 301 304 311 311 317 319
230 232 232 228 235 238 233 227 236 236 236 237 243 239 245 250 247 260 257 265 263 241 254 255 262 252 268 254 259 266 275 262 268 275 274 276 294 290 293 294 300 300 308 309 312
229 232 231 229 233 240 236 233 226 242 237 239 236 238 244 237 250 257 243 252 250 248 246 252 251 257 252 264 259 263 266 268 266 268 273 278 285 284 289 288 284 293 304 310 319
229 229 233 229 233 230 234 237 241 230 240 245 241 247 243 240 251 240 244 255 249 245 248 245 258 257 257 267 262 268 268 268 275 275 274 278 288 282 285 293 302 289 304 308 316
231 230 231 231 229 229 228 234 241 254 247 239 238 248 237 242 246 242 240 246 245 241 252 249 254 259 259 267 267 264 272 270 270 280 289 272 281 279 279 294 302 297 305 297 312
232 229 231 232 232 232 232 235 233 235 233 239 235 239 244 246 245 242 243 251 242 251 251 259 258 263 256 263 265 267 268 271 273 270 275 282 275 282 287 286 291 279 296 302 309
230 230 232 237 234 232 233 234 231 239 239 232 231 237 241 243 242 249 246 244 254 243 247 249 257 258 252 265 267 269 265 272 272 275 279 278 282 283 291 295 297 297 301 295 306
231 228 229 236 229 236 235 236 233 231 238 231 237 234 239 241 237 242 250 253 245 255 254 250 260 253 261 265 267 268 271 265 272 275 277 282 281 287 288 291 293 285 304 306 304
232 231 230 231 234 237 239 232 234 235 232 235 235 236 236 240 242 245 244 245 248 248 255 250 255 260 258 258 263 263 269 271 268 273 277 280 285 285 292 287 295 296 303 305 302
234 232 234 234 233 236 236 240 229 237 240 240 239 234 240 238 242 248 239 248 251 253 246 257 254 254 262 261 265 263 263 269 272 274 276 279 283 286 288 290 294 298 302 299 298
233 234 234 235 235 235 226 238 237 236 240 236 238 241 239 242 241 240 242 248 249 252 254 245 260 254 254 262 262 260 263 268 271 269 276 280 281 285 286 289 293 296 298 302 304
230 232 234 232 235 234 235 230 236 233 238 232 234 239 241 244 244 243 245 247 251 257 252 256 257 261 259 262 260 266 266 271 271 273 276 280 279 283 287 291 291 295 297 301 304
230 231 233 235 231 232 235 235 237 232 232 236 234 235 238 242 242 243 242 244 250 249 249 256 259 258 261 257 258 263 269 268 271 274 277 279 281 279 286 288 292 290 297 299 300
230 232 233 232 232 231 226 230 233 235 235 235 241 238 235 247 251 251 245 246 251 249 247 248 254 259 261 263 264 264 270 269 267 274 275 270 281 281 283 287 292 294 295 297 293
228 229 232 232 232 231 228 223 231 233 237 238 241 242 241 237 239 239 242 243 247 249 250 248 254 253 252 258 264 262 263 269 269 272 274 277 279 282 284 284 288 289 294 293 298
226 228 231 231 229 232 231 227 230 224 233 234 239 242 242 243 241 240 244 246 248 250 250 251 252 258 257 263 261 260 264 268 271 269 274 278 279 281 282 283 285 288 290 292 291
224 225 229 229 228 227 231 227 227 224 219 217 235 235 240 242 244 245 244 246 250 251 244 251 258 255 259 259 259 260 264 267 266 272 269 273 274 280 279 283 285 286 288 291 295
223 225 227 228 227 229 231 230 227 225 220 213 218 220 238 247 243 245 248 247 246 250 248 249 257 253 250 259 259 259 262 265 266 269 271 273 274 277 281 283 283 285 286 289 292
230 223 225 228 225 230 230 231 228 224 223 216 217 218 223 228 240 244 240 247 251 250 252 252 252 253 256 259 260 262 263 263 265 267 269 268 274 276 280 281 281 286 288 285 290
220 219 224 225 224 226 230 230 230 228 225 219 217 221 222 227 227 230 235 246 249 252 244 256 253 254 256 258 259 260 265 263 268 265 268 269 276 275 279 281 283 287 287 283 288
223 219 223 224 227 227 230 234 231 227 224 222 220 221 223 223 225 231 234 243 242 246 251 255 252 252 257 256 260 263 263 268 270 265 264 271 272 275 278 275 280 282 285 291 295
223 219 221 223 225 224 224 229 230 227 228 226 225 219 224 222 224 227 233 237 245 249 251 253 256 256 258 248 260 268 264 268 268 267 272 276 270 272 280 276 277 278 282 286 294
222 220 218 224 224 224 228 224 230 227 225 229 226 226 221 227 224 228 234 237 242 246 249 252 253 257 258 260 263 266 261 269 267 268 272 273 271 273 277 276 280 288 288 288 292